Location: Ciula Mare
(45.6000°N, 22.8167°E)
Time: 06:10:52
(UTC+00:00)

BlueWalker 3 - Visible Passes

Search period start: 29 May 2023 00:00
Search period end: 08 June 2023 00:00
Orbit: 495 x 512 km, 53.2° (Epoch: 28 May)

Date Brightness Start Highest point End Pass type
(mag) Time Alt. Az. Time Alt. Az. Time Alt. Az.
29 May 2.2 01:08:01 10° NW 01:11:55 71° NNE 01:15:49 10° ESE visible
29 May 2.0 19:50:27 10° WSW 19:54:17 81° NW 19:58:11 10° ENE visible
29 May 4.0 21:29:49 10° WNW 21:33:15 29° N 21:36:42 10° NE visible
29 May 4.1 23:09:09 10° NW 23:12:35 28° N 23:16:00 10° ENE visible
30 May 2.2 00:47:40 10° NW 00:51:35 72° NNE 00:55:29 10° ESE visible
30 May 2.0 19:30:07 10° WSW 19:33:57 80° NNW 19:37:51 10° ENE visible
30 May 4.0 21:09:29 10° WNW 21:12:55 29° N 21:16:22 10° NE visible
30 May 4.0 22:48:49 10° NW 22:52:15 29° N 22:55:41 10° ENE visible
31 May 2.1 00:27:21 10° NW 00:31:15 74° NNE 00:35:09 10° ESE visible
31 May 3.2 02:06:30 10° W 02:09:26 20° SW 02:12:22 10° S visible
31 May 2.1 19:09:46 10° WSW 19:13:37 78° NNW 19:17:29 10° NE visible
31 May 4.0 20:49:10 10° WNW 20:52:35 29° N 20:56:01 10° NE visible
31 May 4.0 22:28:29 10° NW 22:31:55 29° N 22:35:21 10° ENE visible
01 Jun 2.1 00:07:00 10° NW 00:10:54 76° NNE 00:14:48 10° ESE visible
01 Jun 3.3 01:46:11 10° W 01:49:05 20° SW 01:51:57 10° S visible
01 Jun 2.2 18:49:26 10° WSW 18:53:15 76° NNW 18:57:08 10° NE visible
01 Jun 4.1 20:28:50 10° WNW 20:32:15 29° N 20:35:40 10° NE visible
01 Jun 4.0 22:08:08 10° NW 22:11:34 29° N 22:15:01 10° ENE visible
01 Jun 2.0 23:46:39 10° NW 23:50:32 77° NNE 23:54:26 10° ESE visible
02 Jun 3.3 01:25:52 10° W 01:28:42 19° SW 01:31:32 10° S visible
02 Jun 4.1 20:08:30 10° WNW 20:11:54 28° N 20:15:18 10° NE visible
02 Jun 3.9 21:47:47 10° NW 21:51:13 29° N 21:54:40 10° ENE visible
02 Jun 2.0 23:26:17 10° WNW 23:30:11 79° NNE 23:32:40 21° ESE visible
03 Jun 3.6 01:05:33 10° W 01:07:08 17° WSW 01:07:08 17° WSW visible
03 Jun 4.1 19:48:09 10° WNW 19:51:33 28° N 19:54:57 10° NE visible
03 Jun 3.9 21:27:26 10° NW 21:30:51 29° NNE 21:34:19 10° ENE visible
03 Jun 1.9 23:05:55 10° WNW 23:09:48 81° NNE 23:10:44 51° ESE visible
04 Jun 4.3 00:45:13 10° W 00:45:19 10° W 00:45:19 10° W visible
04 Jun 4.1 19:27:48 10° WNW 19:31:10 28° N 19:34:34 10° NE visible
04 Jun 3.8 21:07:03 10° NW 21:10:30 30° NNE 21:13:58 10° ENE visible
04 Jun 1.9 22:45:33 10° WNW 22:49:27 83° NNE 22:49:48 72° E visible
05 Jun 4.1 19:07:27 10° WNW 19:10:49 28° N 19:14:12 10° NE visible
05 Jun 3.8 20:46:42 10° NW 20:50:08 30° NNE 20:53:36 10° ENE visible
05 Jun 1.8 22:25:10 10° WNW 22:29:04 85° NNE 22:29:14 80° E visible
06 Jun 4.1 18:47:05 10° WNW 18:50:26 28° N 18:53:49 10° NE visible
06 Jun 3.8 20:26:19 10° NW 20:29:46 30° NNE 20:33:14 10° ENE visible
06 Jun 1.8 22:04:47 10° WNW 22:08:41 86° NNE 22:08:52 80° ESE visible
07 Jun 3.7 20:05:55 10° NW 20:09:22 30° NNE 20:12:51 10° ENE visible
07 Jun 1.8 21:44:24 10° WNW 21:48:17 88° NNE 21:48:37 74° ESE visible
